WetterOnline ( http://www.wetteronline.de )

Wetter aktuell Leutkirch

Aktuelles Wetter: Leutkirch-Herlazhofen (671m)

6-stündlich | Neueste Meldungen
Ortszeit Temperatur Wetter
Do, 15.11. 1:00 3.4° C Nebel
Mi, 14.11. 19:00 5.5° C Nebel
Mi, 14.11. 13:00 11.9° C wolkenlos
Mi, 14.11. 7:00 -2.1° C Nebel
Mi, 14.11. 1:00 -0.7° C Nebel
Di, 13.11. 19:00 4.2° C fast wolkenlos
Di, 13.11. 13:00 8.7° C bedeckt
Di, 13.11. 7:00 6.4° C bedeckt
Ortszeit Temperatur Wetter
Do, 15.11. 4:30 2.2° C Nebel
Do, 15.11. 4:20 2.2° C Nebel
Do, 15.11. 4:10 2.2° C Nebel
Do, 15.11. 4:00 2.4° C bedeckt
Do, 15.11. 3:50 2.4° C Nebel
Do, 15.11. 3:40 2.5° C Nebel
Do, 15.11. 3:30 2.5° C Nebel
Do, 15.11. 3:00 2.5° C Nebel
Do, 15.11. 2:30 2.7° C Nebel
Do, 15.11. 2:00 2.8° C Nebel
Do, 15.11. 1:30 3.2° C Nebel
Ortszeit Relative Feuchte Sichtweite
Do, 15.11. 1:00 100% 0.3 km
Mi, 14.11. 19:00 100% 0.2 km
Mi, 14.11. 13:00 67% 55 km
Mi, 14.11. 7:00 99% 100 m
Mi, 14.11. 1:00 97% 0.4 km
Di, 13.11. 19:00 98% 9 km
Di, 13.11. 13:00 88% 30 km
Di, 13.11. 7:00 91% 35 km
Ortszeit Relative Feuchte Sichtweite
Do, 15.11. 4:30 100% 0.2 km
Do, 15.11. 4:20 100% -
Do, 15.11. 4:10 99% -
Do, 15.11. 4:00 100% -
Do, 15.11. 3:50 100% -
Do, 15.11. 3:40 100% -
Do, 15.11. 3:30 100% 0.2 km
Do, 15.11. 3:00 100% 0.2 km
Do, 15.11. 2:30 100% 0.2 km
Do, 15.11. 2:00 100% 0.2 km
Do, 15.11. 1:30 100% 0.2 km
Ortszeit Niederschlagsmenge Niederschlagsart
Do, 15.11. 1:00 0.1 l/m2 in 6 Std. Sprühregen
Mi, 14.11. 19:00 0.1 l/m2 in 12 Std. Sprühregen
Mi, 14.11. 13:00 0.0 l/m2 in 6 Std. -
Mi, 14.11. 7:00 0.0 l/m2 in 12 Std. -
Mi, 14.11. 1:00 0.0 l/m2 in 6 Std. -
Di, 13.11. 19:00 0.8 l/m2 in 12 Std. Regen
Di, 13.11. 13:00 0.0 l/m2 in 6 Std. -
Di, 13.11. 7:00 0.0 l/m2 in 12 Std. -
Ortszeit Niederschlagsmenge Niederschlagsart
Do, 15.11. 4:30 0.0 l/m2 in 1 Std. -
Do, 15.11. 4:20 keine Meldung -
Do, 15.11. 4:10 keine Meldung -
Do, 15.11. 4:00 0.0 l/m2 in 1 Std. -
Do, 15.11. 3:50 keine Meldung -
Do, 15.11. 3:40 keine Meldung -
Do, 15.11. 3:30 0.0 l/m2 in 1 Std. -
Do, 15.11. 3:00 0.0 l/m2 in 1 Std. -
Do, 15.11. 2:30 0.0 l/m2 in 1 Std. -
Do, 15.11. 2:00 0.1 l/m2 in 1 Std. -
Do, 15.11. 1:30 0.1 l/m2 in 1 Std. -
Ortszeit Stärke Spitze Richtung
km/h Bft. km/h Grad Sektor
Do, 15.11. 1:00 6 1 13 40° NO
Mi, 14.11. 19:00 7 2 18 160° S
Mi, 14.11. 13:00 9 2 13 10° N
Mi, 14.11. 7:00 0 0 7 - -
Mi, 14.11. 1:00 2 1 9 140° SO
Di, 13.11. 19:00 7 2 22 150° SO
Di, 13.11. 13:00 18 3 32 190° S
Di, 13.11. 7:00 7 2 18 170° S
Ortszeit Stärke Spitze Richtung
km/h Bft. km/h Grad Sektor
Do, 15.11. 4:30 4 1 7 130° SO
Do, 15.11. 4:20 4 1 - 130° SO
Do, 15.11. 4:10 4 1 - 100° O
Do, 15.11. 4:00 4 1 7 50° NO
Do, 15.11. 3:50 4 1 - 50° NO
Do, 15.11. 3:40 4 1 - 50° NO
Do, 15.11. 3:30 4 1 4 50° NO
Do, 15.11. 3:00 2 1 9 190° S
Do, 15.11. 2:30 6 1 9 10° N
Do, 15.11. 2:00 6 1 7 20° N
Do, 15.11. 1:30 6 1 7 70° O
Ortszeit Untergrenze Bedeckung Gattung
total tief tief mittel hoch
Do, 15.11. 1:00 <30 m 8/8 8/8 - - -
Mi, 14.11. 19:00 <30 m 8/8 8/8 - - -
Mi, 14.11. 13:00 - 0/8 0/8 - - -
Mi, 14.11. 7:00 <30 m 5/8 5/8 - - -
Mi, 14.11. 1:00 <30 m 1/8 1/8 - - -
Di, 13.11. 19:00 3000 m 1/8 1/8 - - -
Di, 13.11. 13:00 1080 m 8/8 8/8 - - -
Di, 13.11. 7:00 6300 m 8/8 8/8 - - -
Ortszeit Bedeckungsgrad in Achtel und Wolkenuntergrenze
Do, 15.11. 4:30 8(<30m)
Do, 15.11. 4:20 8(<30m)
Do, 15.11. 4:10 8(<30m)
Do, 15.11. 4:00 8(<30m)
Do, 15.11. 3:50 8(<30m)
Do, 15.11. 3:40 8(<30m)
Do, 15.11. 3:30 8(<30m)
Do, 15.11. 3:00 8(<30m)
Do, 15.11. 2:30 8(<30m)
Do, 15.11. 2:00 8(<30m)
Do, 15.11. 1:30 8(30m)
Ortszeit Luftdruck NN (hPa) Tendenz (hPa in 3 Std.)
Do, 15.11. 1:00 1029 - 0,8
Mi, 14.11. 19:00 1029 0,0
Mi, 14.11. 13:00 1028 - 1,0
Mi, 14.11. 7:00 1034 - 0,4
Mi, 14.11. 1:00 1035 - 0,2
Di, 13.11. 19:00 1034 + 1,1
Di, 13.11. 13:00 1030 + 2,6
Di, 13.11. 7:00 1026 + 2,1
Ortszeit Luftdruck NN (hPa) Tendenz (hPa in 3 Std.)
Do, 15.11. 4:30 1029 0,0
Do, 15.11. 4:20 1029 keine Meldung
Do, 15.11. 4:10 1029 keine Meldung
Do, 15.11. 4:00 1029 - 0,2
Do, 15.11. 3:50 1029 keine Meldung
Do, 15.11. 3:40 1029 keine Meldung
Do, 15.11. 3:30 1029 - 0,3
Do, 15.11. 3:00 1029 - 0,3
Do, 15.11. 2:30 1029 - 0,7
Do, 15.11. 2:00 1029 - 0,8
Do, 15.11. 1:30 1029 - 1,0
Ortszeit Schneehöhe (cm)
Do, 15.11. 1:00 0
Mi, 14.11. 19:00 0
Mi, 14.11. 13:00 0
Mi, 14.11. 7:00 0
Mi, 14.11. 1:00 0
Di, 13.11. 19:00 0
Di, 13.11. 13:00 0
Di, 13.11. 7:00 0
Ortszeit Schneehöhe (cm)
Do, 15.11. 4:30 0
Do, 15.11. 4:20 0
Do, 15.11. 4:10 0
Do, 15.11. 4:00 0
Do, 15.11. 3:50 0
Do, 15.11. 3:40 0
Do, 15.11. 3:30 0
Do, 15.11. 3:00 0
Do, 15.11. 2:30 0
Do, 15.11. 2:00 0
Do, 15.11. 1:30 0
Link zu dieser Seite / Seite empfehlen

Das Wetter in ...